Location: Focicchia
(42.2496°N, 9.2935°E)
Time: 23:04:16
(UTC+00:00)

Cosmos 2084 Rocket - Pass Details

Date: 07 June 2020
Orbit: 557 x 624 km, 62.8° (Epoch: 14 July)

Event Time Altitude Azimuth Distance (km) Brightness Sun altitude
Rises 00:07:30 0° 325° (NW) 2,875 7.6 -24.1°
Reaches altitude 10° 00:09:47 10° 327° (NNW) 1,976 6.7 -24.0°
Maximum altitude 00:14:15 71° 51° (NE) 657 3.7 -23.8°
Enters shadow 00:14:59 58° 108° (ESE) 725 3.8 -23.8°
